Location: Taupo
(38.6830°S, 176.0830°E)
Time: 17:06:53
(UTC+13:00)

Cosmos 1869 Rocket - Pass Details

Date: 24 January 2019
Orbit: 605 x 633 km, 82.5° (Epoch: 23 October)

Event Time Altitude Azimuth Distance (km) Brightness Sun altitude
Rises 22:29:41 0° 183° (S) 2,913 7.8 -18.7°
Reaches altitude 10° 22:31:59 10° 178° (S) 1,996 6.8 -19.0°
Maximum altitude 22:36:19 56° 100° (E) 738 3.7 -19.5°
Enters shadow 22:37:08 47° 58° (ENE) 815 3.7 -19.7°
